Flag for Germany Weather past 2 weeks in Herford, North Rhine-Westphalia, Germany

Now
57 °F

Passing clouds.


Feels Like: 57 °F
Forecast: 51 / 68 °F
Wind: 5 mph from South

Location: Bueckeburg

Current Time: Sep 30, 2014 at 10:51:30 PM

Latest Report: Sep 30, 2014 at 10:20 PM


Visibility: N/A

Pressure: 30.27 "Hg

Humidity: 88%

Dew point: 54 °F

Location of HerfordLocation

Historic Weather in Herford — Graph

°F

Herford temperature yesterday

Maximum temperature yesterday: 73 °F (at 3:20 PM)
Minimum temperature yesterday: 59 °F (at 1:20 AM)
Average temperature yesterday: 65 °F

Past Weeks' High & Low Weather Summary

 TemperatureHumidityPressure
High79 °F (Sep 18, 4:20 PM)100% (Sep 16, 12:53 AM)30.39 "Hg (Sep 16, 12:53 AM)
Low43 °F (Sep 23, 6:20 AM)49% (Sep 27, 4:20 PM)29.80 "Hg (Sep 24, 5:20 PM)
Average61 °F81%30.05 "Hg
* Reported Sep 15 9:20 PM — Sep 30 9:20 PM, Herford, Weather by CustomWeather, © 2014

Note: Actual official high and low records may vary slightly from our data, if they occured in-between our weather recording intervals... More about our weather records

Advertising

Herford weather history for previous 24 hours

 ConditionsComfort  
Time TempWeatherWind HumidityBarometerVisibility
9:20 PM
Sep 30
61 °FPassing clouds.2 mph77%30.27 "HgN/A
8:20 PM61 °FPassing clouds.5 mph77%30.27 "HgN/A
7:20 PM61 °FScattered clouds.6 mph83%30.27 "HgN/A
6:20 PM64 °FScattered clouds.6 mph78%30.24 "HgN/A
5:20 PM66 °FScattered clouds.7 mph68%30.24 "HgN/A
4:20 PM66 °FScattered clouds.10 mph68%30.24 "HgN/A
3:20 PM68 °FPartly sunny.10 mph64%30.24 "HgN/A
2:20 PM64 °FPartly sunny.10 mph78%30.24 "HgN/A
1:49 PM64 °FPartly sunny.9 mph83%30.24 "HgN/A
1:20 PM64 °FBroken clouds.7 mph83%30.24 "Hg4 mi
12:20 PM63 °FPartly sunny.9 mph88%30.24 "Hg4 mi
11:20 AM63 °FFog.9 mph88%30.24 "Hg3 mi
10:20 AM63 °FFog.8 mph88%30.21 "Hg2 mi
9:20 AM61 °FFog.7 mph94%30.21 "Hg3 mi
8:20 AM61 °FFog.7 mph94%30.21 "Hg3 mi
7:20 AM61 °FFog.5 mph94%30.21 "Hg3 mi
6:47 AM59 °FPassing clouds.3 mph94%30.21 "Hg4 mi
6:20 AM59 °FPassing clouds.3 mph94%30.21 "Hg5 mi
5:20 AM59 °FCool.5 mph100%30.21 "Hg4 mi
4:20 AM59 °FCool.3 mph100%30.18 "Hg4 mi
3:20 AM59 °FCool.2 mph94%30.21 "Hg1 mi
2:20 AM59 °FCool.3 mph100%30.21 "Hg1 mi
1:20 AM59 °FCool.3 mph100%30.21 "Hg1 mi
12:20 AM61 °FCool.3 mph94%30.21 "Hg2 mi
11:20 PM
Sep 29
63 °FMild.6 mph88%30.21 "Hg3 mi
10:20 PM64 °FRain. Passing clouds.12 mph88%30.21 "Hg5 mi
Weather by CustomWeather, © 2014

See weather overviewHow to use our weather pages